星链-30832 (STARLINK-30832 )

导读

STARLINK-30832是美国太空探索技术公司(SpaceX)星链星座的组网卫星,于2023年11月18日发射升空。星链项目旨在构建全球卫星互联网星座,为全球提供高速宽带服务。该卫星加入星座后,进一步扩大了星链网络覆盖范围,推动全球卫星互联网服务能力提升。

基本信息
目录编号:
58354
目录名称:
STARLINK-30832
国际标识:
2023-177D
轨道中心:
EARTH
卫星名称:
星链-30832
卫星全名:
星链-30832 (STARLINK-30832 )
卫星状态:
在轨 (已飞行940 天)
发射日期:
2023-11-18 UTC
国别 :
美国 (US)
星等 :
--
轨道信息
数据来源 国际轨道数据 AOE轨道数据
星历时间 2026-06-14T14:43:28+0800
1天前
查看轨道信息
2026-06-15T05:00:00+0800
10小时前
查看轨道信息
半长轴 6861.193km 6861.182km
偏心率 0.0001336 0.0000369
轨道倾角 43.005° 43.001°
近地点辐角 263.308° 217.502°
升交点赤经 165.622° 162.267°
平近点角 96.762° 177.500°
近地点 482.139km 482.791km
远地点 483.973km 483.299km
周期 94.267分钟 94.267分钟
每日圈数 15.275779 15.275814
详细信息
固有亮度:
5
最大亮度:
0.3
卫星平台:
Starlink v2.0 mini
覆盖范围:
全球
运营商:
太空探索技术公司
运营商所在国:
美国
制造商(研发单位):
太空探索技术公司
制造商所在国:
美国
使用方式:
暂无
卫星简介
星链(Starlink)计划是由太空探索技术公司(SpaceX)提出的一个巨型低轨卫星互联网星座项目,计划在2019年至2024年间在太空搭建由约1.2万颗卫星组成的“星链”网络,其中1584颗将部署在地球上空550千米处的近地轨道,并从2020年开始工作。该卫星仍在工作。
2D轨道图
3D轨道图
轨道高度分析图
轨道倾角分析图
轨道综合分析图
查看轨道综合分析图